Time,TemperatureF,DewpointF,PressureIn,WindDirection,WindDirectionDegrees,WindSpeedMPH,WindSpeedGustMPH,Humidity,HourlyPrecipIn,Conditions,Clouds,dailyrainin,SoftwareType,DateUTC
2013-03-30 00:02:00,58.3,50.4,29.98,NW,318,0.0,0.0,75,0.00,,,0.00,WeatherCatV1.14B232,2013-03-30 07:02:00,
2013-03-30 00:07:00,58.2,50.3,29.98,NW,318,0.0,0.0,75,0.00,,,0.00,WeatherCatV1.14B232,2013-03-30 07:07:00,
2013-03-30 00:12:00,58.0,50.1,29.98,NW,318,0.0,0.0,75,0.00,,,0.00,WeatherCatV1.14B232,2013-03-30 07:12:00,
2013-03-30 00:17:00,57.8,50.3,29.98,NW,318,0.0,0.0,76,0.00,,,0.00,WeatherCatV1.14B232,2013-03-30 07:17:00,
2013-03-30 00:22:00,57.6,50.1,29.98,NW,318,0.0,0.0,76,0.00,,,0.00,WeatherCatV1.14B232,2013-03-30 07:22:00,
2013-03-30 00:27:00,57.5,50.0,29.98,NW,318,0.0,0.0,76,0.00,,,0.00,WeatherCatV1.14B232,2013-03-30 07:27:00,
2013-03-30 00:32:00,57.4,50.2,29.98,NW,318,0.0,0.0,77,0.00,,,0.00,WeatherCatV1.14B232,2013-03-30 07:32:00,
2013-03-30 00:37:00,57.4,50.2,29.98,NW,318,0.0,0.0,77,0.00,,,0.00,WeatherCatV1.14B232,2013-03-30 07:37:00,
2013-03-30 00:42:00,57.3,50.2,29.98,NW,318,0.0,0.0,77,0.00,,,0.00,WeatherCatV1.14B232,2013-03-30 07:42:00,
2013-03-30 00:47:00,57.2,50.1,29.98,NW,318,0.0,0.0,77,0.00,,,0.00,WeatherCatV1.14B232,2013-03-30 07:47:00,
2013-03-30 00:52:00,57.1,50.0,29.98,NW,318,0.0,0.0,77,0.00,,,0.00,WeatherCatV1.14B232,2013-03-30 07:52:00,
2013-03-30 00:57:00,57.0,50.2,29.98,NW,318,0.0,0.0,78,0.00,,,0.00,WeatherCatV1.14B232,2013-03-30 07:57:00,
2013-03-30 01:02:00,56.9,50.1,29.98,NW,318,0.0,0.0,78,0.00,,,0.00,WeatherCatV1.14B232,2013-03-30 08:02:00,
2013-03-30 01:07:00,56.9,50.1,29.98,NW,318,0.0,0.0,78,0.00,,,0.00,WeatherCatV1.14B232,2013-03-30 08:07:00,
2013-03-30 01:12:00,56.8,50.4,29.98,NW,318,0.0,0.0,79,0.00,,,0.00,WeatherCatV1.14B232,2013-03-30 08:12:00,
2013-03-30 01:17:00,56.8,50.0,29.98,NW,318,0.0,0.0,78,0.00,,,0.00,WeatherCatV1.14B232,2013-03-30 08:17:00,
2013-03-30 01:22:00,56.7,49.9,29.98,NW,318,0.0,0.0,78,0.00,,,0.00,WeatherCatV1.14B232,2013-03-30 08:22:00,
2013-03-30 01:27:00,56.6,49.8,29.98,NW,318,0.0,0.0,78,0.00,,,0.00,WeatherCatV1.14B232,2013-03-30 08:27:00,
2013-03-30 01:32:00,56.6,50.2,29.98,NW,318,0.0,0.0,79,0.00,,,0.00,WeatherCatV1.14B232,2013-03-30 08:32:00,
2013-03-30 01:37:00,56.5,50.1,29.98,NW,318,0.0,0.0,79,0.00,,,0.00,WeatherCatV1.14B232,2013-03-30 08:37:00,
2013-03-30 01:42:00,56.4,50.0,29.98,NW,318,0.0,0.0,79,0.00,,,0.00,WeatherCatV1.14B232,2013-03-30 08:42:00,
2013-03-30 01:47:00,56.3,50.2,29.98,NW,318,0.0,0.0,80,0.00,,,0.00,WeatherCatV1.14B232,2013-03-30 08:47:00,
2013-03-30 01:52:00,56.2,50.1,29.97,NW,318,0.0,0.0,80,0.00,,,0.00,WeatherCatV1.14B232,2013-03-30 08:52:00,
2013-03-30 01:57:00,56.2,50.1,29.97,NW,318,0.0,0.0,80,0.00,,,0.00,WeatherCatV1.14B232,2013-03-30 08:57:00,
2013-03-30 02:02:00,56.1,50.0,29.97,NW,318,0.0,0.0,80,0.00,,,0.00,WeatherCatV1.14B232,2013-03-30 09:02:00,
2013-03-30 02:07:00,56.0,49.9,29.97,NW,318,0.0,0.0,80,0.00,,,0.00,WeatherCatV1.14B232,2013-03-30 09:07:00,
2013-03-30 02:12:00,55.9,50.2,29.97,NW,318,0.0,0.0,81,0.00,,,0.00,WeatherCatV1.14B232,2013-03-30 09:12:00,
2013-03-30 02:17:00,55.9,50.2,29.97,NW,318,0.0,0.0,81,0.00,,,0.00,WeatherCatV1.14B232,2013-03-30 09:17:00,
2013-03-30 02:22:00,55.8,50.1,29.97,NW,318,0.0,0.0,81,0.00,,,0.00,WeatherCatV1.14B232,2013-03-30 09:22:00,
2013-03-30 02:27:00,55.8,50.1,29.97,NW,318,0.0,0.0,81,0.00,,,0.00,WeatherCatV1.14B232,2013-03-30 09:27:00,
2013-03-30 02:32:00,55.7,50.0,29.97,NW,318,0.0,0.0,81,0.00,,,0.00,WeatherCatV1.14B232,2013-03-30 09:32:00,
2013-03-30 02:36:00,55.6,50.2,29.97,NW,318,0.0,0.0,82,0.00,,,0.00,WeatherCatV1.14B232,2013-03-30 09:36:00,
2013-03-30 02:41:00,55.4,50.0,29.97,NW,326,0.0,1.0,82,0.00,,,0.00,WeatherCatV1.14B232,2013-03-30 09:41:00,
2013-03-30 02:46:00,55.4,50.3,29.97,NW,326,0.0,0.0,83,0.00,,,0.00,WeatherCatV1.14B232,2013-03-30 09:46:00,
2013-03-30 02:51:00,55.3,50.2,29.97,NW,326,0.0,0.0,83,0.00,,,0.00,WeatherCatV1.14B232,2013-03-30 09:51:00,
2013-03-30 02:56:00,55.2,50.4,29.97,NW,326,0.0,0.0,84,0.00,,,0.00,WeatherCatV1.14B232,2013-03-30 09:56:00,
2013-03-30 03:01:00,55.0,50.6,29.97,NW,326,0.0,0.0,85,0.00,,,0.00,WeatherCatV1.14B232,2013-03-30 10:01:00,
2013-03-30 03:06:00,55.0,50.6,29.97,NW,326,0.0,0.0,85,0.00,,,0.00,WeatherCatV1.14B232,2013-03-30 10:06:00,
2013-03-30 03:11:00,54.8,50.1,29.97,NW,324,0.0,2.0,84,0.00,,,0.00,WeatherCatV1.14B232,2013-03-30 10:11:00,
2013-03-30 03:16:00,54.5,49.8,29.97,NW,324,0.0,0.0,84,0.00,,,0.00,WeatherCatV1.14B232,2013-03-30 10:16:00,
2013-03-30 03:21:00,54.4,49.7,29.97,NW,324,0.0,0.0,84,0.00,,,0.00,WeatherCatV1.14B232,2013-03-30 10:21:00,
2013-03-30 03:26:00,54.2,49.8,29.97,NW,324,0.0,0.0,85,0.00,,,0.00,WeatherCatV1.14B232,2013-03-30 10:26:00,
2013-03-30 03:31:00,54.2,49.8,29.96,NW,324,0.0,0.0,85,0.00,,,0.00,WeatherCatV1.14B232,2013-03-30 10:31:00,
2013-03-30 03:36:00,54.1,49.7,29.97,NW,324,0.0,0.0,85,0.00,,,0.00,WeatherCatV1.14B232,2013-03-30 10:36:00,
2013-03-30 03:41:00,54.0,49.6,29.96,NW,323,0.0,0.0,85,0.00,,,0.00,WeatherCatV1.14B232,2013-03-30 10:41:00,
2013-03-30 03:46:00,54.0,49.9,29.96,NW,323,0.0,0.0,86,0.00,,,0.00,WeatherCatV1.14B232,2013-03-30 10:46:00,
2013-03-30 03:51:00,54.0,49.9,29.96,NW,324,0.0,0.0,86,0.00,,,0.00,WeatherCatV1.14B232,2013-03-30 10:51:00,
2013-03-30 03:56:00,54.0,49.9,29.96,NW,323,0.0,0.0,86,0.00,,,0.00,WeatherCatV1.14B232,2013-03-30 10:56:00,
2013-03-30 04:01:00,54.1,50.3,29.96,NW,324,0.0,0.0,87,0.00,,,0.00,WeatherCatV1.14B232,2013-03-30 11:01:00,
2013-03-30 04:06:00,54.2,50.4,29.96,NW,324,0.0,0.0,87,0.00,,,0.00,WeatherCatV1.14B232,2013-03-30 11:06:00,
2013-03-30 04:11:00,54.1,50.3,29.96,NW,323,0.0,0.0,87,0.00,,,0.00,WeatherCatV1.14B232,2013-03-30 11:11:00,
2013-03-30 04:16:00,54.1,50.3,29.96,NW,324,0.0,0.0,87,0.00,,,0.00,WeatherCatV1.14B232,2013-03-30 11:16:00,
2013-03-30 04:21:00,54.1,50.3,29.96,NW,324,0.0,0.0,87,0.00,,,0.00,WeatherCatV1.14B232,2013-03-30 11:21:00,
2013-03-30 04:26:00,54.1,50.3,29.96,NW,323,0.0,0.0,87,0.00,,,0.00,WeatherCatV1.14B232,2013-03-30 11:26:00,
2013-03-30 04:31:00,54.1,50.3,29.96,NW,323,0.0,0.0,87,0.00,,,0.00,WeatherCatV1.14B232,2013-03-30 11:31:00,
2013-03-30 04:36:00,54.0,50.2,29.96,NW,324,0.0,0.0,87,0.00,,,0.00,WeatherCatV1.14B232,2013-03-30 11:36:00,
2013-03-30 04:41:00,54.0,50.5,29.96,NW,324,0.0,0.0,88,0.00,,,0.00,WeatherCatV1.14B232,2013-03-30 11:41:00,
2013-03-30 04:46:00,54.0,50.5,29.97,NW,323,0.0,0.0,88,0.00,,,0.00,WeatherCatV1.14B232,2013-03-30 11:46:00,
2013-03-30 04:51:00,53.9,50.4,29.96,NW,323,0.0,0.0,88,0.00,,,0.00,WeatherCatV1.14B232,2013-03-30 11:51:00,
2013-03-30 04:56:00,53.9,50.4,29.97,NW,324,0.0,0.0,88,0.00,,,0.00,WeatherCatV1.14B232,2013-03-30 11:56:00,
2013-03-30 05:01:00,53.9,50.4,29.96,NW,324,0.0,0.0,88,0.00,,,0.00,WeatherCatV1.14B232,2013-03-30 12:01:00,
2013-03-30 05:06:00,54.0,50.8,29.96,NW,324,0.0,0.0,89,0.00,,,0.00,WeatherCatV1.14B232,2013-03-30 12:06:00,
2013-03-30 05:11:00,53.9,50.7,29.96,NW,324,0.0,0.0,89,0.00,,,0.00,WeatherCatV1.14B232,2013-03-30 12:11:00,
2013-03-30 05:16:00,53.9,50.4,29.96,NW,324,0.0,0.0,88,0.00,,,0.00,WeatherCatV1.14B232,2013-03-30 12:16:00,
2013-03-30 05:21:00,53.9,50.7,29.96,NW,324,0.0,0.0,89,0.00,,,0.00,WeatherCatV1.14B232,2013-03-30 12:21:00,
2013-03-30 05:26:00,53.9,50.7,29.96,NW,324,0.0,0.0,89,0.00,,,0.00,WeatherCatV1.14B232,2013-03-30 12:26:00,
2013-03-30 05:31:00,54.1,51.2,29.96,NW,324,0.0,0.0,90,0.00,,,0.00,WeatherCatV1.14B232,2013-03-30 12:31:00,
2013-03-30 05:36:00,54.1,51.2,29.96,NW,323,0.0,0.0,90,0.00,,,0.00,WeatherCatV1.14B232,2013-03-30 12:36:00,
2013-03-30 05:41:00,54.1,51.2,29.96,NW,323,0.0,0.0,90,0.00,,,0.00,WeatherCatV1.14B232,2013-03-30 12:41:00,
2013-03-30 05:46:00,54.1,51.2,29.96,NW,324,0.0,0.0,90,0.00,,,0.00,WeatherCatV1.14B232,2013-03-30 12:46:00,
2013-03-30 05:51:00,54.0,51.1,29.96,NW,324,0.0,0.0,90,0.00,,,0.00,WeatherCatV1.14B232,2013-03-30 12:51:00,
2013-03-30 05:56:00,53.9,50.7,29.96,NW,323,0.0,0.0,89,0.00,,,0.00,WeatherCatV1.14B232,2013-03-30 12:56:00,
2013-03-30 06:01:00,53.8,50.6,29.97,NW,324,0.0,2.0,89,0.00,,,0.00,WeatherCatV1.14B232,2013-03-30 13:01:00,
2013-03-30 06:06:00,53.7,50.8,29.97,NW,324,0.0,1.0,90,0.00,,,0.00,WeatherCatV1.14B232,2013-03-30 13:06:00,
2013-03-30 06:11:00,53.7,50.8,29.97,NW,324,0.0,0.0,90,0.00,,,0.00,WeatherCatV1.14B232,2013-03-30 13:11:00,
2013-03-30 06:16:00,53.6,50.7,29.97,NW,324,0.0,1.0,90,0.00,,,0.00,WeatherCatV1.14B232,2013-03-30 13:16:00,
2013-03-30 06:21:00,53.5,50.6,29.97,NW,324,0.0,0.0,90,0.00,,,0.00,WeatherCatV1.14B232,2013-03-30 13:21:00,
2013-03-30 06:26:00,53.5,50.6,29.97,NW,324,0.0,0.0,90,0.00,,,0.00,WeatherCatV1.14B232,2013-03-30 13:26:00,
2013-03-30 06:31:00,53.4,50.5,29.97,NW,323,0.0,0.0,90,0.00,,,0.00,WeatherCatV1.14B232,2013-03-30 13:31:00,
2013-03-30 06:36:00,53.5,50.6,29.97,NW,323,0.0,0.0,90,0.00,,,0.00,WeatherCatV1.14B232,2013-03-30 13:36:00,
2013-03-30 06:41:00,53.5,50.9,29.97,NW,324,0.0,0.0,91,0.00,,,0.00,WeatherCatV1.14B232,2013-03-30 13:41:00,
2013-03-30 06:46:00,53.5,50.9,29.98,NW,324,0.0,0.0,91,0.00,,,0.00,WeatherCatV1.14B232,2013-03-30 13:46:00,
2013-03-30 06:51:00,53.4,50.8,29.98,NW,324,0.0,0.0,91,0.00,,,0.00,WeatherCatV1.14B232,2013-03-30 13:51:00,
2013-03-30 06:56:00,53.4,50.8,29.98,NW,324,0.0,0.0,91,0.00,,,0.00,WeatherCatV1.14B232,2013-03-30 13:56:00,
2013-03-30 07:01:00,53.4,50.8,29.98,NW,324,0.0,0.0,91,0.00,,,0.00,WeatherCatV1.14B232,2013-03-30 14:01:00,
2013-03-30 07:06:00,53.3,50.7,29.98,NW,323,0.0,0.0,91,0.00,,,0.00,WeatherCatV1.14B232,2013-03-30 14:06:00,
2013-03-30 07:11:00,53.3,50.7,29.98,NW,323,0.0,0.0,91,0.00,,,0.00,WeatherCatV1.14B232,2013-03-30 14:11:00,
2013-03-30 07:16:00,53.2,50.6,29.99,NW,324,0.0,0.0,91,0.00,,,0.00,WeatherCatV1.14B232,2013-03-30 14:16:00,
2013-03-30 07:21:00,53.1,50.5,30.00,NW,324,0.0,0.0,91,0.00,,,0.00,WeatherCatV1.14B232,2013-03-30 14:21:00,
2013-03-30 07:26:00,53.3,51.0,30.00,NW,323,0.0,0.0,92,0.00,,,0.00,WeatherCatV1.14B232,2013-03-30 14:26:00,
2013-03-30 07:31:00,53.5,51.2,30.00,NW,323,0.0,0.0,92,0.00,,,0.00,WeatherCatV1.14B232,2013-03-30 14:31:00,
2013-03-30 07:36:00,53.9,51.6,30.00,NW,323,0.0,0.0,92,0.00,,,0.00,WeatherCatV1.14B232,2013-03-30 14:36:00,
2013-03-30 07:41:00,54.2,51.9,30.00,NW,324,0.0,0.0,92,0.00,,,0.00,WeatherCatV1.14B232,2013-03-30 14:41:00,
2013-03-30 07:46:00,54.5,52.5,30.00,NW,323,0.0,1.0,93,0.00,,,0.00,WeatherCatV1.14B232,2013-03-30 14:46:00,
2013-03-30 07:52:00,54.7,52.4,30.00,NW,324,0.0,1.0,92,0.00,,,0.00,WeatherCatV1.14B232,2013-03-30 14:52:00,
2013-03-30 07:57:00,54.8,52.5,30.01,NW,323,0.0,0.0,92,0.00,,,0.00,WeatherCatV1.14B232,2013-03-30 14:57:00,
2013-03-30 08:02:00,55.0,52.7,30.01,NW,324,0.0,0.0,92,0.00,,,0.00,WeatherCatV1.14B232,2013-03-30 15:02:00,
2013-03-30 08:07:00,55.2,52.6,30.01,NW,324,0.0,0.0,91,0.00,,,0.00,WeatherCatV1.14B232,2013-03-30 15:07:00,
2013-03-30 08:12:00,55.4,52.8,30.01,NW,323,0.0,0.0,91,0.00,,,0.00,WeatherCatV1.14B232,2013-03-30 15:12:00,
2013-03-30 08:17:00,55.7,53.1,30.00,NW,324,0.0,0.0,91,0.00,,,0.00,WeatherCatV1.14B232,2013-03-30 15:17:00,
2013-03-30 08:22:00,56.1,53.8,30.00,NW,324,0.0,0.0,92,0.00,,,0.00,WeatherCatV1.14B232,2013-03-30 15:22:00,
2013-03-30 08:27:00,56.6,54.3,30.00,NW,324,0.0,1.0,92,0.00,,,0.00,WeatherCatV1.14B232,2013-03-30 15:27:00,
2013-03-30 08:32:00,57.2,54.6,30.00,NW,323,0.0,0.0,91,0.00,,,0.00,WeatherCatV1.14B232,2013-03-30 15:32:00,
2013-03-30 08:37:00,57.8,54.9,30.00,NW,324,0.0,1.0,90,0.00,,,0.00,WeatherCatV1.14B232,2013-03-30 15:37:00,
2013-03-30 08:42:00,58.4,55.2,30.00,NW,324,0.0,0.0,89,0.00,,,0.00,WeatherCatV1.14B232,2013-03-30 15:42:00,
2013-03-30 08:47:00,59.1,55.5,30.00,NW,323,0.0,1.0,88,0.00,,,0.00,WeatherCatV1.14B232,2013-03-30 15:47:00,
2013-03-30 08:52:00,60.0,55.8,30.00,NW,324,0.0,0.0,86,0.00,,,0.00,WeatherCatV1.14B232,2013-03-30 15:52:00,
2013-03-30 08:57:00,60.8,55.9,30.00,NW,324,0.0,1.0,84,0.00,,,0.00,WeatherCatV1.14B232,2013-03-30 15:57:00,
2013-03-30 09:02:00,61.5,56.3,30.00,NW,324,0.0,1.0,83,0.00,,,0.00,WeatherCatV1.14B232,2013-03-30 16:02:00,
2013-03-30 09:07:00,62.4,56.5,30.00,NW,324,0.0,1.0,81,0.00,,,0.00,WeatherCatV1.14B232,2013-03-30 16:07:00,
2013-03-30 09:12:00,63.3,56.7,30.00,NW,323,0.0,1.0,79,0.00,,,0.00,WeatherCatV1.14B232,2013-03-30 16:12:00,
2013-03-30 09:17:00,64.0,57.3,30.00,NW,324,0.0,1.0,79,0.00,,,0.00,WeatherCatV1.14B232,2013-03-30 16:17:00,
2013-03-30 09:22:00,64.6,56.9,30.00,NW,324,0.0,0.0,76,0.00,,,0.00,WeatherCatV1.14B232,2013-03-30 16:22:00,
2013-03-30 09:27:00,65.2,57.1,30.00,NW,323,1.0,2.0,75,0.00,,,0.00,WeatherCatV1.14B232,2013-03-30 16:27:00,
2013-03-30 09:32:00,65.8,57.6,30.01,NW,324,0.0,1.0,75,0.00,,,0.00,WeatherCatV1.14B232,2013-03-30 16:32:00,
2013-03-30 09:37:00,66.3,57.4,30.01,NW,323,0.0,0.0,73,0.00,,,0.00,WeatherCatV1.14B232,2013-03-30 16:37:00,
2013-03-30 09:42:00,67.0,57.3,30.01,NW,324,0.0,1.0,71,0.00,,,0.00,WeatherCatV1.14B232,2013-03-30 16:42:00,
2013-03-30 09:47:00,67.6,58.2,30.01,NW,324,0.0,1.0,72,0.00,,,0.00,WeatherCatV1.14B232,2013-03-30 16:47:00,
2013-03-30 09:52:00,68.3,57.7,30.01,NW,323,0.0,1.0,69,0.00,,,0.00,WeatherCatV1.14B232,2013-03-30 16:52:00,
2013-03-30 09:57:00,68.7,57.7,30.01,SW,215,0.0,2.0,68,0.00,,,0.00,WeatherCatV1.14B232,2013-03-30 16:57:00,
2013-03-30 10:02:00,69.0,57.6,30.01,SSW,212,0.0,1.0,67,0.00,,,0.00,WeatherCatV1.14B232,2013-03-30 17:02:00,
2013-03-30 10:07:00,69.4,57.1,30.01,SSW,210,0.0,2.0,65,0.00,,,0.00,WeatherCatV1.14B232,2013-03-30 17:07:00,
2013-03-30 10:12:00,69.8,57.1,30.00,SSW,202,1.0,1.0,64,0.00,,,0.00,WeatherCatV1.14B232,2013-03-30 17:12:00,
2013-03-30 10:17:00,70.4,57.6,30.01,SSW,207,0.0,3.0,64,0.00,,,0.00,WeatherCatV1.14B232,2013-03-30 17:17:00,
2013-03-30 10:22:00,70.9,57.2,30.01,SSW,212,0.0,1.0,62,0.00,,,0.00,WeatherCatV1.14B232,2013-03-30 17:22:00,
2013-03-30 10:27:00,71.0,57.3,30.01,SSW,212,1.0,3.0,62,0.00,,,0.00,WeatherCatV1.14B232,2013-03-30 17:27:00,
2013-03-30 10:32:00,71.3,57.6,30.00,SW,215,2.0,5.0,62,0.00,,,0.00,WeatherCatV1.14B232,2013-03-30 17:32:00,
2013-03-30 10:37:00,71.5,57.8,30.00,WSW,240,1.0,4.0,62,0.00,,,0.00,WeatherCatV1.14B232,2013-03-30 17:37:00,
2013-03-30 10:42:00,71.6,57.4,30.01,WSW,240,0.0,1.0,61,0.00,,,0.00,WeatherCatV1.14B232,2013-03-30 17:42:00,
2013-03-30 10:47:00,72.0,58.3,30.01,WSW,249,0.0,4.0,62,0.00,,,0.00,WeatherCatV1.14B232,2013-03-30 17:47:00,
2013-03-30 10:52:00,72.5,58.7,30.01,SW,236,0.0,3.0,62,0.00,,,0.00,WeatherCatV1.14B232,2013-03-30 17:52:00,
2013-03-30 10:57:00,72.9,58.6,30.01,WSW,247,0.0,1.0,61,0.00,,,0.00,WeatherCatV1.14B232,2013-03-30 17:57:00,
2013-03-30 11:02:00,73.4,57.7,30.01,SSW,197,1.0,3.0,58,0.00,,,0.00,WeatherCatV1.14B232,2013-03-30 18:02:00,
2013-03-30 11:07:00,73.5,56.3,30.01,WSW,242,0.0,2.0,55,0.00,,,0.00,WeatherCatV1.14B232,2013-03-30 18:07:00,
2013-03-30 11:12:00,73.9,56.7,30.01,SSW,202,2.0,5.0,55,0.00,,,0.00,WeatherCatV1.14B232,2013-03-30 18:12:00,
2013-03-30 11:17:00,74.3,55.5,30.01,SSW,207,1.0,3.0,52,0.00,,,0.00,WeatherCatV1.14B232,2013-03-30 18:17:00,
2013-03-30 11:22:00,74.5,55.2,30.01,SSW,209,0.0,4.0,51,0.00,,,0.00,WeatherCatV1.14B232,2013-03-30 18:22:00,
2013-03-30 11:27:00,75.0,54.5,30.01,WSW,242,6.0,6.0,49,0.00,,,0.00,WeatherCatV1.14B232,2013-03-30 18:27:00,
2013-03-30 11:32:00,75.3,55.4,30.01,SW,227,2.0,4.0,50,0.00,,,0.00,WeatherCatV1.14B232,2013-03-30 18:32:00,
2013-03-30 11:37:00,75.5,53.3,30.00,WSW,246,2.0,9.0,46,0.00,,,0.00,WeatherCatV1.14B232,2013-03-30 18:37:00,
2013-03-30 11:42:00,75.7,55.7,30.00,WSW,254,0.0,3.0,50,0.00,,,0.00,WeatherCatV1.14B232,2013-03-30 18:42:00,
2013-03-30 11:47:00,76.1,54.4,30.00,WSW,243,0.0,6.0,47,0.00,,,0.00,WeatherCatV1.14B232,2013-03-30 18:47:00,
2013-03-30 11:52:00,76.2,55.6,30.00,WSW,255,0.0,4.0,49,0.00,,,0.00,WeatherCatV1.14B232,2013-03-30 18:52:00,
2013-03-30 11:57:00,76.7,56.6,30.00,SW,227,0.0,2.0,50,0.00,,,0.00,WeatherCatV1.14B232,2013-03-30 18:57:00,
2013-03-30 12:02:00,77.3,57.7,30.00,SW,223,1.0,4.0,51,0.00,,,0.00,WeatherCatV1.14B232,2013-03-30 19:02:00,
2013-03-30 12:07:00,77.5,56.2,30.00,WSW,237,4.0,6.0,48,0.00,,,0.00,WeatherCatV1.14B232,2013-03-30 19:07:00,
2013-03-30 12:12:00,77.5,55.7,30.00,SSW,198,3.0,4.0,47,0.00,,,0.00,WeatherCatV1.14B232,2013-03-30 19:12:00,
2013-03-30 12:17:00,77.6,55.8,30.00,SW,232,1.0,5.0,47,0.00,,,0.00,WeatherCatV1.14B232,2013-03-30 19:17:00,
2013-03-30 12:22:00,77.7,55.8,29.99,SSW,209,0.0,3.0,47,0.00,,,0.00,WeatherCatV1.14B232,2013-03-30 19:22:00,
2013-03-30 12:27:00,77.9,57.2,29.99,North,0,0.0,2.0,49,0.00,,,0.00,WeatherCatV1.14B232,2013-03-30 19:27:00,
2013-03-30 12:32:00,77.9,55.4,29.99,NW,326,0.0,3.0,46,0.00,,,0.00,WeatherCatV1.14B232,2013-03-30 19:32:00,
2013-03-30 12:37:00,78.1,56.8,29.99,South,188,1.0,4.0,48,0.00,,,0.00,WeatherCatV1.14B232,2013-03-30 19:37:00,
2013-03-30 12:42:00,78.2,55.1,29.99,NW,314,0.0,2.0,45,0.00,,,0.00,WeatherCatV1.14B232,2013-03-30 19:42:00,
2013-03-30 12:47:00,78.6,56.1,29.99,WSW,257,1.0,4.0,46,0.00,,,0.00,WeatherCatV1.14B232,2013-03-30 19:47:00,
2013-03-30 12:52:00,79.0,55.2,29.99,SW,226,0.0,2.0,44,0.00,,,0.00,WeatherCatV1.14B232,2013-03-30 19:52:00,
2013-03-30 12:57:00,79.4,54.9,29.98,WSW,256,0.0,3.0,43,0.00,,,0.00,WeatherCatV1.14B232,2013-03-30 19:57:00,
2013-03-30 13:02:00,79.3,54.8,29.98,NW,318,0.0,3.0,43,0.00,,,0.00,WeatherCatV1.14B232,2013-03-30 20:02:00,
2013-03-30 13:07:00,79.4,55.6,29.98,NW,313,1.0,3.0,44,0.00,,,0.00,WeatherCatV1.14B232,2013-03-30 20:07:00,
2013-03-30 13:12:00,79.4,55.6,29.98,NW,308,0.0,4.0,44,0.00,,,0.00,WeatherCatV1.14B232,2013-03-30 20:12:00,
2013-03-30 13:17:00,79.5,54.4,29.98,WSW,238,0.0,4.0,42,0.00,,,0.00,WeatherCatV1.14B232,2013-03-30 20:17:00,
2013-03-30 13:22:00,79.5,55.0,29.98,West,281,0.0,3.0,43,0.00,,,0.00,WeatherCatV1.14B232,2013-03-30 20:22:00,
2013-03-30 13:27:00,80.0,58.5,29.97,WNW,282,0.0,0.0,48,0.00,,,0.00,WeatherCatV1.14B232,2013-03-30 20:27:00,
2013-03-30 13:32:00,80.6,57.3,29.97,SW,222,0.0,4.0,45,0.00,,,0.00,WeatherCatV1.14B232,2013-03-30 20:32:00,
2013-03-30 13:37:00,81.1,56.5,29.97,SW,217,0.0,2.0,43,0.00,,,0.00,WeatherCatV1.14B232,2013-03-30 20:37:00,
2013-03-30 13:42:00,81.5,55.5,29.96,East,98,0.0,2.0,41,0.00,,,0.00,WeatherCatV1.14B232,2013-03-30 20:42:00,
2013-03-30 13:47:00,81.1,54.5,29.96,East,101,1.0,3.0,40,0.00,,,0.00,WeatherCatV1.14B232,2013-03-30 20:47:00,
2013-03-30 13:52:00,81.1,53.8,29.96,East,96,0.0,0.0,39,0.00,,,0.00,WeatherCatV1.14B232,2013-03-30 20:52:00,
2013-03-30 13:57:00,81.0,55.7,29.96,NE,51,0.0,4.0,42,0.00,,,0.00,WeatherCatV1.14B232,2013-03-30 20:57:00,
2013-03-30 14:02:00,80.6,53.3,29.95,ENE,78,4.0,4.0,39,0.00,,,0.00,WeatherCatV1.14B232,2013-03-30 21:02:00,
2013-03-30 14:07:00,80.4,53.8,29.95,ENE,65,0.0,2.0,40,0.00,,,0.00,WeatherCatV1.14B232,2013-03-30 21:07:00,
2013-03-30 14:12:00,80.7,56.7,29.95,ENE,72,2.0,2.0,44,0.00,,,0.00,WeatherCatV1.14B232,2013-03-30 21:12:00,
2013-03-30 14:17:00,80.7,53.4,29.94,East,79,3.0,3.0,39,0.00,,,0.00,WeatherCatV1.14B232,2013-03-30 21:17:00,
2013-03-30 14:22:00,80.7,54.1,29.94,South,180,0.0,6.0,40,0.00,,,0.00,WeatherCatV1.14B232,2013-03-30 21:22:00,
2013-03-30 14:27:00,81.4,56.1,29.94,ESE,118,0.0,4.0,42,0.00,,,0.00,WeatherCatV1.14B232,2013-03-30 21:27:00,
2013-03-30 14:32:00,81.9,56.5,29.94,SSW,192,0.0,1.0,42,0.00,,,0.00,WeatherCatV1.14B232,2013-03-30 21:32:00,
2013-03-30 14:37:00,82.2,56.1,29.94,SSW,203,0.0,2.0,41,0.00,,,0.00,WeatherCatV1.14B232,2013-03-30 21:37:00,
2013-03-30 14:42:00,82.5,55.7,29.93,WSW,257,3.0,3.0,40,0.00,,,0.00,WeatherCatV1.14B232,2013-03-30 21:42:00,
2013-03-30 14:47:00,82.7,55.2,29.93,SW,235,3.0,6.0,39,0.00,,,0.00,WeatherCatV1.14B232,2013-03-30 21:47:00,
2013-03-30 14:52:00,82.9,55.4,29.93,WSW,238,0.0,5.0,39,0.00,,,0.00,WeatherCatV1.14B232,2013-03-30 21:52:00,
2013-03-30 14:57:00,83.2,55.6,29.93,WSW,238,0.0,5.0,39,0.00,,,0.00,WeatherCatV1.14B232,2013-03-30 21:57:00,
2013-03-30 15:02:00,83.1,55.5,29.93,SW,224,1.0,3.0,39,0.00,,,0.00,WeatherCatV1.14B232,2013-03-30 22:02:00,
2013-03-30 15:07:00,83.1,54.1,29.92,SSW,213,0.0,0.0,37,0.00,,,0.00,WeatherCatV1.14B232,2013-03-30 22:07:00,
2013-03-30 15:12:00,82.8,53.8,29.92,SSW,213,0.0,0.0,37,0.00,,,0.00,WeatherCatV1.14B232,2013-03-30 22:12:00,
2013-03-30 15:17:00,82.9,53.2,29.92,SW,219,0.0,0.0,36,0.00,,,0.00,WeatherCatV1.14B232,2013-03-30 22:17:00,
2013-03-30 15:22:00,83.0,54.0,29.92,SW,220,0.0,2.0,37,0.00,,,0.00,WeatherCatV1.14B232,2013-03-30 22:22:00,
2013-03-30 15:27:00,83.3,53.5,29.91,SW,220,0.0,1.0,36,0.00,,,0.00,WeatherCatV1.14B232,2013-03-30 22:27:00,
2013-03-30 15:32:00,83.4,55.1,29.91,SW,219,0.0,1.0,38,0.00,,,0.00,WeatherCatV1.14B232,2013-03-30 22:32:00,
2013-03-30 15:37:00,83.3,53.5,29.91,SW,219,0.0,1.0,36,0.00,,,0.00,WeatherCatV1.14B232,2013-03-30 22:37:00,
2013-03-30 15:42:00,83.4,52.8,29.91,West,264,0.0,1.0,35,0.00,,,0.00,WeatherCatV1.14B232,2013-03-30 22:42:00,
2013-03-30 15:47:00,83.0,52.5,29.91,North,355,0.0,6.0,35,0.00,,,0.00,WeatherCatV1.14B232,2013-03-30 22:47:00,
2013-03-30 15:52:00,83.2,54.9,29.90,WNW,283,1.0,2.0,38,0.00,,,0.00,WeatherCatV1.14B232,2013-03-30 22:52:00,
2013-03-30 15:57:00,83.3,55.0,29.90,NNW,344,0.0,2.0,38,0.00,,,0.00,WeatherCatV1.14B232,2013-03-30 22:57:00,
2013-03-30 16:02:00,83.5,53.7,29.90,SSW,208,1.0,4.0,36,0.00,,,0.00,WeatherCatV1.14B232,2013-03-30 23:02:00,
2013-03-30 16:07:00,83.7,55.4,29.90,SSW,208,0.0,1.0,38,0.00,,,0.00,WeatherCatV1.14B232,2013-03-30 23:07:00,
2013-03-30 16:12:00,83.9,55.5,29.90,SSW,198,1.0,3.0,38,0.00,,,0.00,WeatherCatV1.14B232,2013-03-30 23:12:00,
2013-03-30 16:17:00,84.0,54.1,29.89,SSW,194,2.0,2.0,36,0.00,,,0.00,WeatherCatV1.14B232,2013-03-30 23:17:00,
2013-03-30 16:22:00,84.1,54.2,29.89,SSW,194,1.0,1.0,36,0.00,,,0.00,WeatherCatV1.14B232,2013-03-30 23:22:00,
2013-03-30 16:27:00,84.1,51.9,29.89,WSW,242,1.0,3.0,33,0.00,,,0.00,WeatherCatV1.14B232,2013-03-30 23:27:00,
2013-03-30 16:32:00,83.9,52.5,29.89,SSW,199,0.0,1.0,34,0.00,,,0.00,WeatherCatV1.14B232,2013-03-30 23:32:00,
2013-03-30 16:37:00,83.9,54.1,29.89,SSW,199,0.0,1.0,36,0.00,,,0.00,WeatherCatV1.14B232,2013-03-30 23:37:00,
2013-03-30 16:42:00,84.0,54.9,29.88,SSW,199,0.0,0.0,37,0.00,,,0.00,WeatherCatV1.14B232,2013-03-30 23:42:00,
2013-03-30 16:47:00,84.3,55.2,29.88,SSW,204,0.0,2.0,37,0.00,,,0.00,WeatherCatV1.14B232,2013-03-30 23:47:00,
2013-03-30 16:52:00,84.6,53.9,29.88,SSW,204,0.0,0.0,35,0.00,,,0.00,WeatherCatV1.14B232,2013-03-30 23:52:00,
2013-03-30 16:57:00,84.7,53.2,29.88,SW,221,0.0,0.0,34,0.00,,,0.00,WeatherCatV1.14B232,2013-03-30 23:57:00,
2013-03-30 17:02:00,84.8,54.8,29.88,SW,222,0.0,0.0,36,0.00,,,0.00,WeatherCatV1.14B232,2013-03-31 00:02:00,
2013-03-30 17:07:00,84.9,54.2,29.88,SW,225,2.0,3.0,35,0.00,,,0.00,WeatherCatV1.14B232,2013-03-31 00:07:00,
2013-03-30 17:12:00,84.7,54.0,29.88,WSW,241,0.0,4.0,35,0.00,,,0.00,WeatherCatV1.14B232,2013-03-31 00:12:00,
2013-03-30 17:17:00,84.5,53.8,29.88,SSW,209,0.0,2.0,35,0.00,,,0.00,WeatherCatV1.14B232,2013-03-31 00:17:00,
2013-03-30 17:22:00,84.2,53.5,29.87,SSW,209,0.0,0.0,35,0.00,,,0.00,WeatherCatV1.14B232,2013-03-31 00:22:00,
2013-03-30 17:27:00,84.2,55.8,29.87,SSW,209,0.0,1.0,38,0.00,,,0.00,WeatherCatV1.14B232,2013-03-31 00:27:00,
2013-03-30 17:32:00,84.2,51.9,29.87,SSW,209,0.0,0.0,33,0.00,,,0.00,WeatherCatV1.14B232,2013-03-31 00:32:00,
2013-03-30 17:37:00,84.2,53.5,29.87,SSW,209,0.0,1.0,35,0.00,,,0.00,WeatherCatV1.14B232,2013-03-31 00:37:00,
2013-03-30 17:42:00,84.1,52.7,29.87,SSW,213,0.0,1.0,34,0.00,,,0.00,WeatherCatV1.14B232,2013-03-31 00:42:00,
2013-03-30 17:47:00,84.0,52.6,29.87,SSW,213,0.0,0.0,34,0.00,,,0.00,WeatherCatV1.14B232,2013-03-31 00:47:00,
2013-03-30 17:52:00,84.0,53.4,29.86,SSW,213,0.0,0.0,35,0.00,,,0.00,WeatherCatV1.14B232,2013-03-31 00:52:00,
2013-03-30 17:57:00,84.0,50.9,29.87,SSW,213,0.0,0.0,32,0.00,,,0.00,WeatherCatV1.14B232,2013-03-31 00:57:00,
2013-03-30 18:02:00,84.0,52.6,29.87,SW,229,3.0,7.0,34,0.00,,,0.00,WeatherCatV1.14B232,2013-03-31 01:02:00,
2013-03-30 18:07:00,82.6,48.9,29.87,SSW,210,3.0,9.0,31,0.00,,,0.00,WeatherCatV1.14B232,2013-03-31 01:07:00,
2013-03-30 18:12:00,81.2,48.5,29.87,SW,220,6.0,16.0,32,0.00,,,0.00,WeatherCatV1.14B232,2013-03-31 01:12:00,
2013-03-30 18:17:00,79.5,48.6,29.88,SW,236,10.0,14.0,34,0.00,,,0.00,WeatherCatV1.14B232,2013-03-31 01:17:00,
2013-03-30 18:22:00,77.9,48.8,29.88,SW,220,13.0,14.0,36,0.00,,,0.00,WeatherCatV1.14B232,2013-03-31 01:22:00,
2013-03-30 18:27:00,76.4,48.9,29.88,SW,216,5.0,11.0,38,0.00,,,0.00,WeatherCatV1.14B232,2013-03-31 01:27:00,
2013-03-30 18:32:00,75.6,48.9,29.88,SSW,205,4.0,7.0,39,0.00,,,0.00,WeatherCatV1.14B232,2013-03-31 01:32:00,
2013-03-30 18:37:00,75.1,48.4,29.88,SSW,212,7.0,7.0,39,0.00,,,0.00,WeatherCatV1.14B232,2013-03-31 01:37:00,
2013-03-30 18:42:00,74.7,48.8,29.89,SW,222,3.0,10.0,40,0.00,,,0.00,WeatherCatV1.14B232,2013-03-31 01:42:00,
2013-03-30 18:47:00,74.2,49.0,29.88,SW,217,3.0,10.0,41,0.00,,,0.00,WeatherCatV1.14B232,2013-03-31 01:47:00,
2013-03-30 18:52:00,73.7,49.2,29.89,SW,234,10.0,10.0,42,0.00,,,0.00,WeatherCatV1.14B232,2013-03-31 01:52:00,
2013-03-30 18:57:00,73.2,49.3,29.89,SW,224,2.0,7.0,43,0.00,,,0.00,WeatherCatV1.14B232,2013-03-31 01:57:00,
2013-03-30 19:02:00,72.7,48.9,29.88,SW,229,4.0,14.0,43,0.00,,,0.00,WeatherCatV1.14B232,2013-03-31 02:02:00,
2013-03-30 19:07:00,72.1,49.0,29.89,SSW,202,5.0,10.0,44,0.00,,,0.00,WeatherCatV1.14B232,2013-03-31 02:07:00,
2013-03-30 19:12:00,71.7,49.2,29.89,SW,219,2.0,4.0,45,0.00,,,0.00,WeatherCatV1.14B232,2013-03-31 02:12:00,
2013-03-30 19:17:00,71.3,49.4,29.89,SW,215,3.0,6.0,46,0.00,,,0.00,WeatherCatV1.14B232,2013-03-31 02:17:00,
2013-03-30 19:22:00,70.8,49.0,29.89,SSW,212,4.0,7.0,46,0.00,,,0.00,WeatherCatV1.14B232,2013-03-31 02:22:00,
2013-03-30 19:27:00,70.4,49.8,29.89,SSW,199,2.0,6.0,48,0.00,,,0.00,WeatherCatV1.14B232,2013-03-31 02:27:00,
2013-03-30 19:32:00,69.9,49.9,29.89,SSW,209,1.0,9.0,49,0.00,,,0.00,WeatherCatV1.14B232,2013-03-31 02:32:00,
2013-03-30 19:37:00,69.5,48.4,29.90,SW,215,4.0,13.0,47,0.00,,,0.00,WeatherCatV1.14B232,2013-03-31 02:37:00,
2013-03-30 19:42:00,69.3,48.8,29.90,SW,215,9.0,9.0,48,0.00,,,0.00,WeatherCatV1.14B232,2013-03-31 02:42:00,
2013-03-30 19:47:00,69.1,48.6,29.90,SSW,200,2.0,7.0,48,0.00,,,0.00,WeatherCatV1.14B232,2013-03-31 02:47:00,
2013-03-30 19:52:00,68.7,48.8,29.90,SSW,213,1.0,7.0,49,0.00,,,0.00,WeatherCatV1.14B232,2013-03-31 02:52:00,
2013-03-30 19:57:00,68.5,48.6,29.90,SW,219,7.0,11.0,49,0.00,,,0.00,WeatherCatV1.14B232,2013-03-31 02:57:00,
2013-03-30 20:02:00,68.3,48.9,29.90,SW,217,3.0,6.0,50,0.00,,,0.00,WeatherCatV1.14B232,2013-03-31 03:02:00,
2013-03-30 20:07:00,68.1,48.7,29.90,SW,218,4.0,7.0,50,0.00,,,0.00,WeatherCatV1.14B232,2013-03-31 03:07:00,
2013-03-30 20:12:00,67.9,49.1,29.90,SW,217,6.0,10.0,51,0.00,,,0.00,WeatherCatV1.14B232,2013-03-31 03:12:00,
2013-03-30 20:17:00,67.7,48.9,29.91,SW,215,9.0,9.0,51,0.00,,,0.00,WeatherCatV1.14B232,2013-03-31 03:17:00,
2013-03-30 20:22:00,67.4,49.2,29.91,SSW,207,3.0,9.0,52,0.00,,,0.00,WeatherCatV1.14B232,2013-03-31 03:22:00,
2013-03-30 20:27:00,67.2,49.5,29.91,SSW,209,2.0,3.0,53,0.00,,,0.00,WeatherCatV1.14B232,2013-03-31 03:27:00,
2013-03-30 20:32:00,66.8,49.6,29.91,SW,215,1.0,7.0,54,0.00,,,0.00,WeatherCatV1.14B232,2013-03-31 03:32:00,
2013-03-30 20:37:00,66.8,49.1,29.92,WSW,248,5.0,6.0,53,0.00,,,0.00,WeatherCatV1.14B232,2013-03-31 03:37:00,
2013-03-30 20:42:00,66.8,49.1,29.92,SW,236,1.0,2.0,53,0.00,,,0.00,WeatherCatV1.14B232,2013-03-31 03:42:00,
2013-03-30 20:47:00,66.7,49.0,29.93,WSW,240,5.0,5.0,53,0.00,,,0.00,WeatherCatV1.14B232,2013-03-31 03:47:00,
2013-03-30 20:52:00,66.6,49.4,29.93,SSW,207,6.0,7.0,54,0.00,,,0.00,WeatherCatV1.14B232,2013-03-31 03:52:00,
2013-03-30 20:57:00,66.4,49.2,29.93,WSW,242,2.0,6.0,54,0.00,,,0.00,WeatherCatV1.14B232,2013-03-31 03:57:00,
2013-03-30 21:00:00,66.3,49.1,29.93,WSW,238,4.0,4.0,54,0.00,,,0.00,WeatherCatV1.14B232,2013-03-31 04:00:00,
2013-03-30 21:01:00,66.3,49.1,29.93,WSW,237,2.0,4.0,54,0.00,,,0.00,WeatherCatV1.14B232,2013-03-31 04:01:00,
2013-03-30 21:06:00,66.1,49.5,29.93,SW,234,0.0,3.0,55,0.00,,,0.00,WeatherCatV1.14B232,2013-03-31 04:06:00,
2013-03-30 21:11:00,65.9,49.8,29.93,SW,234,0.0,1.0,56,0.00,,,0.00,WeatherCatV1.14B232,2013-03-31 04:11:00,
2013-03-30 21:16:00,65.5,49.9,29.94,SW,227,4.0,5.0,57,0.00,,,0.00,WeatherCatV1.14B232,2013-03-31 04:16:00,
2013-03-30 21:21:00,65.2,49.6,29.94,SW,219,1.0,6.0,57,0.00,,,0.00,WeatherCatV1.14B232,2013-03-31 04:21:00,
2013-03-30 21:26:00,65.2,49.6,29.94,SW,215,1.0,2.0,57,0.00,,,0.00,WeatherCatV1.14B232,2013-03-31 04:26:00,
2013-03-30 21:31:00,65.2,49.6,29.94,SSW,203,2.0,7.0,57,0.00,,,0.00,WeatherCatV1.14B232,2013-03-31 04:31:00,
2013-03-30 21:36:00,65.3,49.7,29.94,SSW,206,2.0,2.0,57,0.00,,,0.00,WeatherCatV1.14B232,2013-03-31 04:36:00,
2013-03-30 21:41:00,65.4,49.8,29.95,SSW,206,0.0,1.0,57,0.00,,,0.00,WeatherCatV1.14B232,2013-03-31 04:41:00,
2013-03-30 21:46:00,65.4,49.3,29.96,SSW,206,0.0,0.0,56,0.00,,,0.00,WeatherCatV1.14B232,2013-03-31 04:46:00,
2013-03-30 21:51:00,65.5,49.9,29.97,SSW,206,0.0,0.0,57,0.00,,,0.00,WeatherCatV1.14B232,2013-03-31 04:51:00,
2013-03-30 21:56:00,65.5,49.9,29.97,SSW,206,0.0,0.0,57,0.00,,,0.00,WeatherCatV1.14B232,2013-03-31 04:56:00,
2013-03-30 22:01:00,65.5,49.9,29.97,SSW,206,0.0,0.0,57,0.00,,,0.00,WeatherCatV1.14B232,2013-03-31 05:01:00,
2013-03-30 22:06:00,65.5,50.8,29.98,SSW,206,0.0,0.0,59,0.00,,,0.00,WeatherCatV1.14B232,2013-03-31 05:06:00,
2013-03-30 22:11:00,65.4,50.2,29.98,SSW,206,0.0,1.0,58,0.00,,,0.00,WeatherCatV1.14B232,2013-03-31 05:11:00,
2013-03-30 22:16:00,65.3,51.1,29.98,SSW,201,0.0,0.0,60,0.00,,,0.00,WeatherCatV1.14B232,2013-03-31 05:16:00,
2013-03-30 22:21:00,65.2,51.4,29.98,SSW,200,0.0,0.0,61,0.00,,,0.00,WeatherCatV1.14B232,2013-03-31 05:21:00,
2013-03-30 22:26:00,65.0,51.7,29.99,SSW,195,0.0,1.0,62,0.00,,,0.00,WeatherCatV1.14B232,2013-03-31 05:26:00,
2013-03-30 22:31:00,64.8,51.5,29.99,South,186,2.0,2.0,62,0.00,,,0.00,WeatherCatV1.14B232,2013-03-31 05:31:00,
2013-03-30 22:36:00,64.5,51.2,29.98,East,98,0.0,3.0,62,0.00,,,0.00,WeatherCatV1.14B232,2013-03-31 05:36:00,
2013-03-30 22:41:00,64.3,51.0,29.99,ESE,107,0.0,3.0,62,0.00,,,0.00,WeatherCatV1.14B232,2013-03-31 05:41:00,
2013-03-30 22:46:00,64.3,51.4,29.99,ESE,106,0.0,1.0,63,0.00,,,0.00,WeatherCatV1.14B232,2013-03-31 05:46:00,
2013-03-30 22:51:00,64.1,51.7,29.99,ESE,107,2.0,2.0,64,0.00,,,0.00,WeatherCatV1.14B232,2013-03-31 05:51:00,
2013-03-30 22:56:00,64.0,52.8,29.99,ESE,107,0.0,1.0,67,0.00,,,0.00,WeatherCatV1.14B232,2013-03-31 05:56:00,
2013-03-30 23:01:00,63.9,53.1,29.99,ESE,107,0.0,0.0,68,0.00,,,0.00,WeatherCatV1.14B232,2013-03-31 06:01:00,
2013-03-30 23:06:00,63.8,53.4,29.99,ESE,107,0.0,1.0,69,0.00,,,0.00,WeatherCatV1.14B232,2013-03-31 06:06:00,
2013-03-30 23:11:00,63.5,53.1,29.99,ESE,107,0.0,0.0,69,0.00,,,0.00,WeatherCatV1.14B232,2013-03-31 06:11:00,
2013-03-30 23:16:00,63.3,53.0,29.99,ESE,107,0.0,0.0,69,0.00,,,0.00,WeatherCatV1.14B232,2013-03-31 06:16:00,
2013-03-30 23:21:00,63.1,53.2,30.00,ESE,107,0.0,1.0,70,0.00,,,0.00,WeatherCatV1.14B232,2013-03-31 06:21:00,
2013-03-30 23:26:00,62.9,53.0,30.00,ESE,109,0.0,0.0,70,0.00,,,0.00,WeatherCatV1.14B232,2013-03-31 06:26:00,
2013-03-30 23:31:00,62.7,53.2,30.00,ESE,113,0.0,0.0,71,0.00,,,0.00,WeatherCatV1.14B232,2013-03-31 06:31:00,
2013-03-30 23:36:00,62.6,53.4,30.01,SSW,212,2.0,5.0,72,0.00,,,0.00,WeatherCatV1.14B232,2013-03-31 06:36:00,
2013-03-30 23:41:00,62.4,54.0,30.00,SSW,210,4.0,6.0,74,0.00,,,0.00,WeatherCatV1.14B232,2013-03-31 06:41:00,
2013-03-30 23:46:00,62.1,54.8,29.99,SW,220,2.0,2.0,77,0.20,,,0.02,WeatherCatV1.14B232,2013-03-31 06:46:00,
2013-03-30 23:51:00,61.7,55.1,29.99,SW,231,0.0,3.0,79,0.07,,,0.02,WeatherCatV1.14B232,2013-03-31 06:51:00,
2013-03-30 23:56:00,61.2,55.0,29.99,SW,217,0.0,2.0,80,0.05,,,0.02,WeatherCatV1.14B232,2013-03-31 06:56:00,